Location: Unspecified
(17.6330°N, 0.0000°E)
Time: 02:29:30
(UTC+00:00)

Transit 4A - All Passes

Search period start: 16 June 2019 00:00
Search period end: 26 June 2019 00:00
Orbit: 862 x 983 km, 66.8° (Epoch: 15 June)

Date Brightness Start Highest point End Pass type
(mag) Time Alt. Az. Time Alt. Az. Time Alt. Az.
16 Jun - 07:58:32 10° S 08:04:17 45° ESE 08:10:13 10° NE daylight
16 Jun - 09:46:33 10° WSW 09:50:42 19° WNW 09:54:57 10° NNW daylight
16 Jun - 19:00:24 10° N 19:06:33 57° ENE 19:12:30 10° SE visible
16 Jun - 20:49:46 10° W 20:52:19 13° WSW 20:54:51 10° SW visible
17 Jun - 08:07:27 10° SSW 08:13:32 75° ESE 08:19:50 10° NNE daylight
17 Jun - 09:58:51 10° WNW 10:00:18 11° WNW 10:01:44 10° NW daylight
17 Jun - 19:09:36 10° NNW 19:15:53 87° WSW 19:21:57 10° SSE visible
18 Jun - 06:36:12 10° ESE 06:37:09 10° ESE 06:38:05 10° E daylight
18 Jun - 08:16:46 10° SSW 08:22:51 68° WNW 08:29:08 10° NNE daylight
18 Jun - 17:35:02 10° NNE 17:38:38 16° ENE 17:42:09 10° E daylight
18 Jun - 19:19:06 10° NNW 19:25:08 53° WSW 19:31:00 10° S visible
19 Jun - 06:42:06 10° SSE 06:46:17 19° ESE 06:50:31 10° ENE daylight
19 Jun - 08:26:28 10° SW 08:32:13 41° WNW 08:38:07 10° N daylight
19 Jun - 17:43:04 10° N 17:48:09 26° ENE 17:53:07 10° ESE daylight
19 Jun - 19:28:58 10° NW 19:34:21 31° WSW 19:39:36 10° SSW visible
20 Jun - 06:50:06 10° SSE 06:55:27 32° ESE 07:00:57 10° NE daylight
20 Jun - 08:36:41 10° WSW 08:41:40 25° WNW 08:46:47 10° N daylight
20 Jun - 17:51:44 10° N 17:57:36 41° ENE 18:03:17 10° SE daylight
20 Jun - 19:39:26 10° WNW 19:43:31 18° WSW 19:47:32 10° SSW visible
21 Jun - 06:58:44 10° S 07:04:40 54° ESE 07:10:47 10° NNE daylight
21 Jun - 08:47:40 10° W 08:51:12 15° WNW 08:54:47 10° NNW daylight
21 Jun - 18:00:45 10° NNW 18:06:58 69° ENE 18:12:59 10° SSE daylight
22 Jun - 07:07:47 10° SSW 07:13:56 89° ESE 07:20:17 10° NNE daylight
22 Jun - 16:28:02 10° NE 16:29:32 11° ENE 16:31:01 10° ENE daylight
22 Jun - 18:10:03 10° NNW 18:16:17 73° WSW 18:22:17 10° SSE daylight
23 Jun - 05:34:42 10° SE 05:37:29 13° ESE 05:40:17 10° ENE daylight
23 Jun - 07:17:15 10° SW 07:23:16 56° WNW 07:29:28 10° N daylight
23 Jun - 16:34:53 10° NNE 16:39:07 19° ENE 16:43:15 10° ESE daylight
23 Jun - 18:19:41 10° NW 18:25:31 43° WSW 18:31:11 10° S daylight
24 Jun - 05:41:54 10° SSE 05:46:38 23° ESE 05:51:27 10° NE daylight
24 Jun - 07:27:08 10° SW 07:32:40 34° WNW 07:38:22 10° N daylight
24 Jun - 16:43:12 10° N 16:48:37 30° ENE 16:53:53 10° SE daylight
24 Jun - 18:29:43 10° NW 18:34:42 26° WSW 18:39:35 10° SSW daylight
25 Jun - 05:50:11 10° S 05:55:49 39° ESE 06:01:37 10° NE daylight
25 Jun - 07:37:33 10° WSW 07:42:09 21° WNW 07:46:50 10° NNW daylight
25 Jun - 16:52:01 10° N 16:58:02 50° ENE 17:03:52 10° SE daylight
25 Jun - 18:40:35 10° WNW 18:43:52 15° WSW 18:47:07 10° SW daylight
